Powrót do katalogu

COSMOS 374 DEB

AktywnyLEO
NORAD 4711·DEBRIS·🇷🇺 Russia

Wystrzelony Oct 23, 1970 z Baikonur Cosmodrome

Loading…

Następne Przeloty (najbliższe 24 godziny)

TLE

ŚwieżeSource: Space-Track

Epoka: Sep 14, 2026, 05:11 UTC

1 04711U 70089S   26257.21610135  .00000805  00000-0  22770-3 0  9992
2 04711  63.1161 337.6039 0815295  83.6788 285.6356 13.38856268666692

Śledź COSMOS 374 DEB w czasie rzeczywistym z AllMySat

Download on the App Store